This is the latest recevied weather packets stored in our database for station/object NO4D. If no packets are shown the sender has not sent any weather packets the latest 10 day(s).
| Time | Temp. | Humidity | Pressure | Rain* | Wind** | Luminosity | Snow |
|---|---|---|---|---|---|---|---|
| 1778005506 | 26.11° C | 39% | 1016.1 hPa | 0 mm | - | 619 W/m² | - |
| 1778005202 | 25.56° C | 40% | 1016.2 hPa | 0 mm | - | 471 W/m² | - |
| 1778004899 | 25.56° C | 39% | 1016.1 hPa | 0 mm | - | 626 W/m² | - |
| 1778004596 | 25.56° C | 40% | 1016.4 hPa | 0 mm | - | 724 W/m² | - |
| 1778004292 | 25.56° C | 42% | 1016.4 hPa | 0 mm | - | 734 W/m² | - |
| 1778003989 | 25.56° C | 40% | 1016.4 hPa | 0 mm | - | 736 W/m² | - |
| 1778003685 | 25° C | 42% | 1016.4 hPa | 0 mm | - | 785 W/m² | - |
| 1778003382 | 25° C | 41% | 1016.8 hPa | 0 mm | - | 811 W/m² | - |
| 1778003079 | 25° C | 41% | 1016.5 hPa | 0 mm | - | 772 W/m² | - |
| 1778002775 | 25.56° C | 40% | 1016.9 hPa | 0 mm | - | 766 W/m² | - |
| 1778002472 | 25° C | 41% | 1016.9 hPa | 0 mm | - | 801 W/m² | - |
| 1778002169 | 25.56° C | 40% | 1016.7 hPa | 0 mm | - | 776 W/m² | - |
| 1778001868 | 25° C | 40% | 1016.8 hPa | 0 mm | - | 772 W/m² | - |
| 1778001566 | 25° C | 42% | 1016.7 hPa | 0 mm | - | 752 W/m² | - |
| 1778001264 | 24.44° C | 46% | 1016.7 hPa | 0 mm | - | 750 W/m² | - |
| 1778000960 | 25° C | 45% | 1016.8 hPa | 0 mm | - | 760 W/m² | - |
| 1778000657 | 25° C | 44% | 1016.8 hPa | 0 mm | - | 731 W/m² | - |
| 1778000352 | 24.44° C | 43% | 1016.6 hPa | 0 mm | - | 735 W/m² | - |
| 1778000048 | 24.44° C | 46% | 1016.5 hPa | 0 mm | - | 771 W/m² | - |
| 1777999744 | 23.89° C | 45% | 1017 hPa | 0 mm | - | 618 W/m² | - |
| 1777999441 | 24.44° C | 46% | 1016.8 hPa | 0 mm | - | 467 W/m² | - |
| 1777999139 | 24.44° C | 45% | 1016.9 hPa | 0 mm | - | 535 W/m² | - |
| 1777998838 | 24.44° C | 46% | 1016.6 hPa | 0 mm | - | 741 W/m² | - |
| 1777998536 | 24.44° C | 45% | 1016.5 hPa | 0 mm | - | 377 W/m² | - |
| 1777998231 | 23.89° C | 48% | 1016.7 hPa | 0 mm | - | 829 W/m² | - |
* Rain latest hour (hover to see other rain measurements)
** Current wind speed in m/s (hover to see current wind gust speed)